Wind_Speed
11 10 9 10 9 8 7 10 9 9 12 11 8 10 13 12 13 15 17 19 22 24 23 22 24 25 23 23 23 23 25 26 27 27 28 29 29 28 27 26 28 28 28
17 17 17 14 11 10 9 7 8 9 8 9 11 11 14 13 14 13 15 19 18 19 23 25 26 22 23 23 25 26 28 29 30 31 32 32 31 32 32 31 29 30 31
17 14 14 14 11 9 10 8 6 5 8 10 11 11 12 13 13 15 18 20 19 19 18 20 18 19 20 23 26 28 28 30 32 34 35 37 38 37 36 36 35 33 32
15 14 12 9 8 1 2 2 4 7 9 8 8 11 15 18 15 17 17 18 18 16 17 17 19 22 23 22 24 24 23 24 28 31 31 29 36 44 45 43 41 38 36
14 12 8 7 8 7 6 8 9 9 8 7 9 13 18 14 14 17 17 15 15 17 17 20 20 21 15 18 20 21 24 25 25 26 28 27 34 27 29 46 49 42 43
14 12 12 7 9 7 8 10 8 6 6 9 14 17 14 16 8 8 12 12 14 16 13 13 17 20 21 23 23 23 25 26 25 31 34 35 40 38 42 40 31 48 52
15 14 11 10 11 12 13 9 6 4 3 13 16 17 16 6 8 9 10 12 15 15 19 18 18 23 27 25 26 26 28 32 33 36 41 43 41 43 45 44 44 38 27
16 17 13 11 10 7 8 7 6 5 1 8 12 15 9 16 12 11 20 18 14 16 19 24 27 27 25 24 29 30 26 29 32 33 32 36 43 46 47 43 38 43 44
18 18 17 15 12 10 9 5 7 7 7 6 6 7 7 5 22 11 19 12 16 21 21 21 25 23 29 24 29 25 27 29 28 29 38 46 45 44 44 44 43 35 37
21 18 16 13 11 10 7 4 8 9 8 8 8 7 10 12 17 14 19 21 20 22 23 24 27 26 25 29 26 28 30 32 35 42 42 40 35 35 35 38 41 37 34
21 17 15 12 10 7 7 6 8 9 9 8 10 13 11 13 15 20 27 25 23 26 26 24 27 28 28 30 24 27 32 34 38 36 34 35 38 38 38 37 35 37 37
20 18 14 11 9 7 7 7 8 9 9 11 9 9 12 15 18 20 23 27 28 29 25 30 25 26 26 24 29 29 33 38 40 34 30 33 38 41 42 36 35 35 33
22 20 16 12 7 8 8 9 10 10 9 8 11 14 15 15 17 19 21 26 28 30 30 28 28 24 24 23 29 32 35 37 36 31 30 35 37 40 38 37 35 34 32
21 18 15 12 11 9 9 9 9 8 7 10 13 14 15 16 14 17 20 24 30 32 31 31 27 25 24 27 27 31 34 34 34 32 36 34 33 35 37 39 36 36 35
23 21 16 12 10 8 8 9 8 8 9 11 13 16 13 15 17 17 18 21 23 32 33 38 33 37 28 27 28 30 32 35 38 39 41 34 37 38 39 43 40 37 36
27 21 16 12 9 8 8 9 8 8 10 13 12 11 14 13 16 16 17 18 21 26 37 40 39 39 35 34 35 39 40 43 43 43 42 35 34 37 40 39 37 37 36
23 17 14 10 8 8 8 8 8 7 8 10 9 10 12 14 14 18 20 20 21 23 31 46 41 37 44 45 44 43 42 42 45 38 34 33 37 36 39 38 38 36 33
21 17 13 10 8 7 7 7 7 7 9 8 10 12 14 15 17 18 20 22 26 29 31 34 47 46 41 44 42 44 45 44 38 35 37 33 36 32 33 35 35 33 30
19 15 12 9 8 7 7 6 7 7 8 8 10 13 16 17 19 23 25 28 32 34 34 32 43 41 41 39 40 38 43 41 36 33 35 28 26 25 33 32 29 36 34
18 14 11 9 8 6 7 7 8 7 9 11 14 16 18 20 23 25 27 28 30 33 34 31 35 40 36 37 35 37 42 37 37 34 33 32 30 30 29 33 35 34 29
17 13 11 9 7 7 9 7 7 9 11 14 16 17 17 19 20 22 26 28 29 33 36 36 36 37 39 39 38 39 41 42 43 37 35 27 26 29 32 35 35 30 29
16 13 10 8 6 10 8 8 8 10 12 13 14 16 20 23 21 25 26 24 26 32 36 36 37 38 37 37 38 38 38 40 41 35 31 34 28 31 34 32 30 30 29
17 14 10 6 11 10 9 7 8 8 9 12 16 20 23 24 26 27 26 28 32 31 26 27 30 30 34 33 34 36 36 36 38 38 32 34 29 33 30 26 27 29 29
15 8 6 13 13 10 8 6 4 6 9 12 16 20 22 24 25 26 28 33 36 31 25 22 24 28 30 31 30 32 33 35 38 35 28 30 30 29 26 25 23 24 29
7 10 15 13 12 11 6 3 3 6 10 13 17 21 23 24 23 25 30 36 35 30 25 25 25 26 27 26 23 26 28 29 32 30 28 21 25 27 30 21 22 31 22
11 18 15 13 12 8 5 1 4 8 11 15 18 21 22 22 24 26 29 29 31 30 29 29 27 27 26 24 23 24 26 27 28 27 17 22 26 23 18 16 31 28 14
Wind_Direction
227 237 227 240 236 222 216 228 241 265 272 279 279 278 275 284 283 284 280 291 299 302 313 310 315 312 310 306 301 297 295 295 295 291 286 285 284 282 280 277 270 263 257
225 220 208 207 218 207 222 238 262 262 283 295 313 329 338 332 324 326 319 315 316 322 314 308 313 312 307 305 304 298 293 288 287 288 288 287 286 284 280 276 273 266 258
234 233 218 225 230 239 240 256 280 338 348 336 326 320 326 306 308 308 291 294 309 304 307 324 311 304 304 308 306 306 302 292 291 286 283 285 284 281 280 277 272 268 262
221 219 223 229 237 199 104 213 231 240 234 245 283 285 274 277 286 286 295 293 296 297 292 298 320 299 301 324 328 317 316 312 307 306 300 294 290 281 277 273 268 266 264
218 220 210 194 140 188 212 224 220 240 264 280 283 282 285 301 290 289 289 294 293 291 295 302 309 315 325 318 313 323 326 317 312 305 298 298 297 306 295 280 267 266 262
201 185 196 201 173 186 222 251 261 274 306 297 280 299 297 309 326 324 290 274 277 293 312 306 305 306 296 295 297 306 304 315 311 304 297 295 298 298 294 294 321 271 264
205 199 212 202 182 207 227 254 271 283 308 281 303 304 322 303 293 269 276 300 312 297 294 297 294 301 306 307 313 303 301 301 301 300 297 298 295 298 302 299 292 298 303
203 176 197 193 175 233 244 273 308 310 250 285 316 326 327 332 251 284 304 312 313 310 305 303 310 313 312 311 306 308 311 304 305 307 308 306 306 305 304 311 306 290 286
194 196 198 211 191 202 247 275 299 306 313 328 320 348 334 310 317 311 321 313 307 310 319 313 314 307 309 307 311 315 300 298 299 303 306 304 306 305 306 310 313 312 289
197 202 208 209 192 202 222 244 279 302 309 315 299 286 278 301 315 311 315 313 308 301 299 302 300 310 307 308 312 305 295 295 300 309 311 309 311 316 317 311 311 304 305
197 200 202 194 183 210 252 261 280 301 307 292 289 297 302 307 306 308 313 311 308 307 308 311 303 303 307 304 305 299 295 295 303 306 307 314 321 320 317 316 317 307 295
192 194 193 193 204 220 243 277 288 300 292 292 300 303 294 301 305 308 308 309 309 312 310 305 314 305 310 301 301 305 300 302 305 307 305 310 313 315 318 311 315 312 303
191 193 192 198 207 235 262 282 291 297 302 305 294 295 293 290 292 296 304 306 307 306 305 303 308 306 310 301 297 304 306 303 301 301 300 303 308 310 313 313 311 311 305
196 195 190 200 217 242 268 283 294 297 289 287 294 292 289 295 302 296 298 305 306 304 304 306 309 308 312 306 304 299 307 305 305 299 294 304 302 301 305 307 308 309 300
192 202 202 210 228 250 272 282 291 293 294 301 289 288 293 286 288 295 294 297 303 306 307 301 307 311 321 308 305 302 296 304 303 296 299 295 297 300 302 302 303 298 303
198 201 205 208 224 248 265 281 292 290 286 283 285 284 289 300 295 299 298 297 291 298 298 297 304 307 310 302 298 297 293 288 289 291 295 295 295 296 302 301 303 298 299
196 198 200 208 226 250 266 281 289 291 286 282 290 290 287 296 303 295 300 302 304 293 290 295 301 300 299 305 304 303 303 298 291 290 290 292 291 293 294 301 300 298 292
190 193 199 213 230 248 264 273 276 274 275 281 282 293 304 306 305 306 297 287 287 289 296 296 301 303 306 312 318 317 315 316 316 304 293 290 293 283 287 301 299 299 293
188 192 204 215 224 236 250 269 270 274 278 286 294 301 303 298 296 294 297 297 298 298 300 301 303 307 308 309 308 306 307 312 313 312 303 288 301 294 297 300 298 309 295
185 193 202 210 216 223 250 253 260 281 291 306 309 308 305 301 303 307 306 308 309 310 313 313 310 309 311 315 314 319 320 320 316 310 309 310 298 298 291 290 299 302 291
184 191 197 202 201 230 251 264 272 294 307 310 314 319 317 317 314 314 318 316 317 316 317 316 313 311 311 319 323 320 317 318 317 319 315 314 304 296 289 299 304 301 299
181 184 188 198 202 251 253 269 286 298 305 315 328 327 328 329 323 320 322 320 317 317 315 315 311 309 314 320 314 315 317 318 314 323 311 307 305 301 305 308 306 304 299
175 174 180 196 234 239 255 272 295 307 319 332 335 334 333 331 328 325 322 324 329 325 318 315 311 311 314 318 320 318 314 311 308 312 316 308 313 315 318 316 313 308 301
167 154 233 221 215 236 252 266 280 312 339 340 335 331 330 329 327 327 325 329 328 328 331 324 317 316 317 319 316 312 307 306 306 311 320 309 319 319 324 327 321 318 311
172 248 217 205 207 217 202 208 299 337 340 341 337 337 334 333 335 332 329 327 325 332 331 327 323 324 323 325 323 318 315 312 311 313 317 306 314 325 330 332 327 327 314
221 196 195 193 195 197 173 207 340 342 340 340 341 340 340 338 335 333 327 327 329 332 331 329 328 328 334 332 327 320 313 306 307 312 311 316 315 334 331 327 335 338 342
Height
1551 1552 1553 1553 1554 1554 1554 1555 1556 1555 1556 1555 1555 1554 1553 1552 1552 1551 1550 1549 1548 1546 1545 1543 1542 1540 1539 1538 1537 1535 1534 1533 1533 1532 1531 1531 1530 1529 1528 1526 1525 1526 1525
1548 1549 1550 1551 1552 1551 1552 1553 1553 1553 1553 1553 1552 1552 1551 1550 1549 1548 1547 1546 1545 1543 1541 1540 1539 1537 1535 1534 1533 1532 1531 1529 1528 1528 1527 1526 1525 1524 1523 1522 1521 1520 1522
1547 1548 1547 1549 1550 1550 1550 1551 1550 1551 1551 1551 1551 1551 1550 1549 1548 1547 1545 1544 1543 1541 1539 1537 1535 1534 1532 1531 1530 1528 1527 1526 1524 1522 1521 1520 1519 1518 1516 1516 1515 1514 1514
1543 1544 1545 1546 1547 1547 1548 1550 1550 1550 1549 1549 1549 1548 1547 1545 1544 1543 1542 1540 1538 1536 1535 1533 1531 1529 1529 1528 1526 1523 1521 1520 1518 1516 1513 1512 1512 1509 1508 1506 1504 1505 1506
1538 1540 1542 1544 1545 1547 1547 1547 1546 1547 1546 1546 1546 1545 1543 1541 1540 1539 1538 1537 1535 1533 1532 1531 1529 1527 1525 1522 1521 1520 1519 1516 1513 1511 1509 1502 1503 1499 1497 1497 1493 1490 1495
1536 1538 1539 1542 1543 1545 1544 1544 1545 1544 1544 1544 1541 1541 1539 1538 1538 1538 1535 1532 1531 1530 1530 1528 1525 1523 1521 1520 1519 1517 1514 1513 1506 1505 1503 1501 1497 1493 1490 1490 1484 1481 1484
1534 1536 1537 1539 1540 1541 1541 1542 1542 1542 1543 1541 1539 1537 1536 1535 1534 1532 1531 1530 1528 1527 1526 1524 1522 1520 1518 1517 1515 1512 1511 1506 1503 1502 1498 1494 1491 1486 1483 1483 1480 1480 1476
1531 1533 1535 1536 1538 1538 1539 1539 1540 1539 1540 1539 1537 1535 1532 1530 1529 1530 1528 1527 1527 1525 1523 1522 1519 1518 1515 1513 1510 1508 1505 1503 1499 1496 1494 1491 1486 1481 1479 1476 1476 1471 1468
1527 1529 1531 1532 1535 1535 1535 1537 1536 1537 1537 1537 1537 1536 1533 1531 1529 1527 1527 1526 1524 1522 1520 1518 1516 1514 1511 1508 1506 1503 1500 1496 1494 1491 1489 1485 1482 1476 1472 1469 1463 1464 1460
1523 1526 1529 1531 1531 1532 1533 1534 1533 1534 1534 1534 1533 1533 1532 1531 1529 1524 1525 1523 1521 1518 1516 1515 1513 1511 1508 1505 1502 1498 1495 1492 1489 1487 1482 1479 1476 1471 1467 1463 1459 1458 1456
1519 1523 1525 1527 1529 1529 1530 1530 1530 1531 1531 1530 1529 1529 1529 1528 1527 1525 1518 1518 1517 1515 1513 1512 1509 1506 1503 1500 1498 1494 1491 1487 1485 1483 1479 1473 1469 1465 1461 1458 1452 1449 1444
1516 1519 1521 1524 1525 1526 1526 1526 1526 1526 1526 1526 1526 1526 1526 1525 1524 1522 1518 1514 1511 1509 1509 1507 1505 1502 1499 1496 1493 1489 1485 1482 1479 1476 1471 1468 1464 1459 1455 1451 1447 1442 1437
1512 1514 1517 1520 1522 1522 1522 1522 1522 1522 1522 1522 1522 1522 1522 1521 1520 1518 1515 1510 1506 1503 1502 1501 1499 1496 1494 1491 1488 1485 1480 1476 1472 1470 1465 1462 1458 1452 1449 1445 1441 1436 1431
1509 1511 1513 1515 1517 1518 1519 1519 1518 1518 1519 1518 1518 1518 1517 1517 1517 1515 1512 1509 1501 1497 1495 1492 1493 1492 1488 1484 1482 1479 1475 1470 1465 1463 1459 1455 1450 1446 1443 1439 1434 1430 1425
1504 1507 1509 1511 1512 1514 1514 1514 1514 1515 1514 1514 1515 1515 1514 1512 1511 1510 1510 1508 1504 1493 1485 1484 1484 1484 1483 1482 1475 1472 1468 1464 1459 1456 1452 1448 1443 1439 1436 1431 1427 1422 1417
1499 1503 1505 1507 1508 1509 1510 1510 1510 1510 1510 1511 1511 1510 1509 1508 1506 1505 1504 1502 1499 1494 1482 1481 1477 1476 1474 1469 1466 1462 1459 1454 1449 1446 1443 1440 1435 1432 1429 1424 1419 1414 1410
1494 1498 1500 1502 1503 1505 1506 1506 1506 1506 1507 1507 1507 1507 1505 1503 1502 1500 1498 1496 1494 1490 1483 1469 1473 1469 1463 1460 1454 1451 1448 1444 1439 1435 1434 1432 1427 1424 1421 1416 1411 1406 1402
1490 1493 1496 1498 1499 1500 1501 1501 1503 1504 1505 1504 1504 1503 1501 1499 1497 1496 1493 1490 1487 1484 1479 1470 1461 1458 1455 1451 1447 1441 1437 1435 1429 1424 1424 1422 1418 1414 1412 1409 1403 1398 1394
1485 1488 1492 1494 1495 1496 1497 1498 1499 1500 1500 1500 1499 1498 1497 1495 1492 1489 1488 1484 1480 1475 1472 1468 1456 1454 1449 1446 1441 1436 1432 1426 1422 1419 1415 1412 1408 1407 1404 1401 1396 1392 1387
1479 1483 1487 1489 1491 1493 1494 1495 1496 1497 1497 1497 1496 1495 1493 1490 1487 1484 1480 1477 1472 1467 1461 1458 1454 1447 1444 1439 1437 1430 1421 1420 1414 1411 1408 1404 1400 1399 1397 1394 1391 1385 1379
1475 1479 1482 1485 1487 1488 1490 1492 1494 1494 1493 1492 1491 1490 1489 1485 1483 1479 1474 1470 1467 1463 1459 1452 1448 1443 1438 1433 1431 1427 1421 1413 1406 1405 1399 1397 1395 1392 1390 1387 1382 1377 1373
1471 1474 1478 1481 1483 1485 1488 1490 1491 1490 1489 1488 1487 1486 1484 1481 1478 1475 1471 1467 1464 1457 1453 1449 1446 1439 1433 1430 1426 1423 1417 1410 1400 1399 1395 1390 1389 1386 1383 1379 1374 1370 1366
1467 1470 1474 1478 1480 1483 1485 1486 1487 1486 1485 1484 1482 1480 1478 1475 1472 1467 1464 1461 1457 1453 1449 1444 1439 1437 1430 1427 1422 1416 1412 1407 1400 1395 1392 1384 1383 1379 1376 1371 1367 1362 1357
1462 1465 1471 1474 1476 1479 1482 1483 1483 1483 1482 1481 1480 1478 1475 1472 1468 1463 1458 1454 1451 1448 1444 1441 1436 1432 1428 1422 1418 1413 1406 1400 1394 1390 1388 1380 1378 1374 1370 1366 1362 1357 1350
1457 1463 1466 1470 1474 1476 1478 1480 1480 1479 1478 1478 1478 1475 1472 1468 1463 1459 1454 1450 1446 1440 1439 1436 1432 1427 1423 1418 1413 1407 1402 1397 1389 1385 1383 1378 1374 1370 1366 1362 1359 1352 1345
1455 1460 1464 1467 1469 1472 1474 1475 1476 1476 1475 1475 1474 1470 1467 1463 1461 1457 1452 1446 1442 1438 1433 1430 1427 1422 1418 1412 1409 1404 1399 1393 1390 1382 1380 1377 1373 1371 1364 1360 1357 1350 1344